| time (UTC) | temp F | wind direction | speed MPH | gust MPH | rain 1hr in | rain 24hr in | rain mn in | humidity % | barometer mb |
| 20260507153849 | 53 | 0 | 2.0 | 8.0 | 0.11 | 0.39 | 0.39 | 90 | 1010.5 |
| 20260507153338 | 53 | 180 | 3.0 | 8.0 | 0.11 | 0.39 | 0.39 | 90 | 1009.8 |
| 20260507152832 | 53 | 135 | 2.0 | 11.0 | 0.09 | 0.38 | 0.38 | 89 | 1009.4 |
| 20260507152318 | 53 | 180 | 6.0 | 11.0 | 0.08 | 0.37 | 0.37 | 89 | 1009.4 |
| 20260507151808 | 54 | 180 | 4.0 | 11.0 | 0.07 | 0.35 | 0.35 | 87 | 1009.3 |
| 20260507151257 | 54 | 180 | 6.0 | 12.0 | 0.05 | 0.33 | 0.34 | 86 | 1008.8 |
| 20260507150748 | 54 | 180 | 5.0 | 12.0 | 0.04 | 0.32 | 0.32 | 85 | 1008.7 |
| 20260507150241 | 55 | 158 | 8.0 | 11.0 | 0.02 | 0.31 | 0.31 | 83 | 1008.3 |
| 20260507150228 | 55 | 158 | 2.0 | 3.0 | 0.00 | 0.28 | 0.28 | 82 | 1010.2 |
| 20260507145218 | 55 | 45 | 2.0 | 11.0 | 0.00 | 0.28 | 0.28 | 82 | 1010.8 |
| 20260507144707 | 55 | 315 | 2.0 | 15.0 | 0.00 | 0.28 | 0.28 | 82 | 1010.2 |
| 20260507144156 | 56 | 0 | 4.0 | 15.0 | 0.00 | 0.28 | 0.28 | 81 | 1009.4 |
| 20260507143650 | 56 | 315 | 8.0 | 15.0 | 0.00 | 0.28 | 0.28 | 80 | 1009.1 |
| 20260507143136 | 56 | 315 | 8.0 | 20.0 | 0.00 | 0.28 | 0.28 | 79 | 1009.5 |
| 20260507143124 | 56 | 203 | 11.0 | 21.0 | 0.00 | 0.28 | 0.28 | 78 | 1008.0 |
| 20260507142729 | 56 | 180 | 10.0 | 20.0 | 0.00 | 0.28 | 0.28 | 78 | 1008.4 |
| 20260507141606 | 57 | 180 | 13.0 | 21.0 | 0.00 | 0.28 | 0.28 | 77 | 1007.2 |
| 20260507141600 | 57 | 180 | 13.0 | 23.0 | 0.02 | 0.28 | 0.28 | 76 | 1007.6 |
| 20260507140546 | 58 | 180 | 14.0 | 23.0 | 0.04 | 0.28 | 0.28 | 76 | 1007.5 |
| 20260507140536 | 58 | 180 | 17.0 | 27.0 | 0.04 | 0.28 | 0.28 | 76 | 1007.1 |
| 20260507135526 | 58 | 180 | 16.0 | 27.0 | 0.04 | 0.28 | 0.28 | 74 | 1007.4 |
| 20260507135016 | 58 | 180 | 12.0 | 22.0 | 0.04 | 0.28 | 0.28 | 74 | 1007.4 |
| 20260507134509 | 58 | 180 | 15.0 | 24.0 | 0.04 | 0.28 | 0.28 | 74 | 1008.0 |
| 20260507133955 | 58 | 135 | 15.0 | 24.0 | 0.04 | 0.28 | 0.28 | 74 | 1008.2 |
| 20260507133445 | 59 | 180 | 17.0 | 23.0 | 0.04 | 0.28 | 0.28 | 75 | 1008.5 |
| 20260507132935 | 60 | 180 | 12.0 | 20.0 | 0.04 | 0.28 | 0.28 | 75 | 1008.8 |
| 20260507132425 | 59 | 225 | 8.0 | 16.0 | 0.04 | 0.28 | 0.28 | 75 | 1008.8 |
| 20260507132419 | 58 | 135 | 8.0 | 17.0 | 0.04 | 0.28 | 0.28 | 75 | 1009.9 |
| 20260507131405 | 58 | 135 | 3.0 | 17.0 | 0.02 | 0.27 | 0.27 | 72 | 1009.8 |
| 20260507130854 | 60 | 180 | 11.0 | 15.0 | 0.01 | 0.26 | 0.26 | 65 | 1008.3 |
| 20260507130357 | 60 | 225 | 4.0 | 15.0 | 0.00 | 0.25 | 0.25 | 62 | 1011.3 |
| 20260507125834 | 60 | 270 | 7.0 | 22.0 | 0.00 | 0.25 | 0.25 | 62 | 1011.6 |
| 20260507125827 | 61 | 158 | 7.0 | 25.0 | 0.00 | 0.25 | 0.25 | 61 | 1008.4 |
| 20260507124814 | 61 | 225 | 10.0 | 25.0 | 0.00 | 0.25 | 0.25 | 61 | 1006.7 |
| 20260507124304 | 61 | 180 | 14.0 | 26.0 | 0.00 | 0.25 | 0.25 | 60 | 1005.6 |
| 20260507123753 | 61 | 158 | 15.0 | 26.0 | 0.00 | 0.25 | 0.25 | 61 | 1005.0 |
| 20260507123244 | 61 | 180 | 11.0 | 24.0 | 0.00 | 0.25 | 0.25 | 60 | 1005.1 |
| 20260507122736 | 61 | 180 | 13.0 | 24.0 | 0.00 | 0.25 | 0.25 | 59 | 1005.5 |
| 20260507122223 | 61 | 158 | 15.0 | 24.0 | 0.00 | 0.25 | 0.25 | 59 | 1005.6 |
| 20260507122214 | 61 | 180 | 20.0 | 24.0 | 0.00 | 0.25 | 0.25 | 60 | 1005.7 |
| 20260507121203 | 61 | 225 | 17.0 | 22.0 | 0.00 | 0.25 | 0.25 | 64 | 1005.4 |
| 20260507120653 | 61 | 225 | 15.0 | 22.0 | 0.00 | 0.25 | 0.25 | 67 | 1005.1 |
| 20260507120159 | 61 | 180 | 11.0 | 22.0 | 0.00 | 0.25 | 0.25 | 67 | 1005.2 |
| 20260507115632 | 61 | 248 | 14.0 | 19.0 | 0.00 | 0.25 | 0.25 | 69 | 1004.8 |
| 20260507115122 | 61 | 225 | 11.0 | 17.0 | 0.00 | 0.25 | 0.25 | 70 | 1004.7 |
| 20260507114613 | 61 | 180 | 8.0 | 23.0 | 0.00 | 0.25 | 0.25 | 70 | 1004.5 |
| 20260507114102 | 62 | 225 | 10.0 | 23.0 | 0.00 | 0.25 | 0.25 | 71 | 1004.2 |
| 20260507113555 | 62 | 158 | 15.0 | 23.0 | 0.00 | 0.25 | 0.25 | 72 | 1004.2 |
| 20260507113042 | 62 | 315 | 12.0 | 23.0 | 0.00 | 0.25 | 0.25 | 73 | 1004.3 |
| 20260507112531 | 62 | 225 | 12.0 | 23.0 | 0.00 | 0.25 | 0.25 | 77 | 1004.1 |
| 20260507112021 | 62 | 180 | 16.0 | 23.0 | 0.00 | 0.25 | 0.25 | 79 | 1003.8 |
| 20260507111511 | 62 | 180 | 11.0 | 21.0 | 0.00 | 0.25 | 0.25 | 78 | 1004.0 |
| 20260507111017 | 62 | 180 | 12.0 | 23.0 | 0.00 | 0.25 | 0.25 | 77 | 1003.6 |
| 20260507110451 | 62 | 180 | 15.0 | 23.0 | 0.00 | 0.25 | 0.25 | 77 | 1003.2 |
| 20260507105941 | 62 | 180 | 15.0 | 23.0 | 0.00 | 0.25 | 0.25 | 76 | 1003.0 |
| 20260507105431 | 63 | 180 | 13.0 | 23.0 | 0.00 | 0.25 | 0.25 | 76 | 1002.7 |
| 20260507104920 | 63 | 180 | 13.0 | 23.0 | 0.00 | 0.25 | 0.25 | 77 | 1002.6 |
| 20260507104413 | 63 | 180 | 16.0 | 26.0 | 0.00 | 0.25 | 0.25 | 78 | 1002.7 |
| 20260507103903 | 64 | 180 | 21.0 | 26.0 | 0.00 | 0.25 | 0.25 | 80 | 1002.5 |
| 20260507103350 | 64 | 180 | 19.0 | 25.0 | 0.00 | 0.25 | 0.25 | 83 | 1002.4 |
| 20260507103340 | 64 | 180 | 16.0 | 26.0 | 0.00 | 0.25 | 0.25 | 84 | 1002.2 |
| 20260507102330 | 64 | 180 | 20.0 | 26.0 | 0.00 | 0.25 | 0.25 | 87 | 1002.3 |
| 20260507101823 | 65 | 225 | 15.0 | 27.0 | 0.00 | 0.25 | 0.25 | 89 | 1002.3 |
| 20260507101309 | 65 | 180 | 16.0 | 27.0 | 0.00 | 0.25 | 0.25 | 91 | 1002.4 |
| 20260507100800 | 65 | 180 | 16.0 | 22.0 | 0.00 | 0.25 | 0.25 | 92 | 1002.4 |
| 20260507100249 | 65 | 248 | 18.0 | 22.0 | 0.00 | 0.25 | 0.25 | 92 | 1002.4 |
| 20260507100239 | 66 | 180 | 12.0 | 22.0 | 0.00 | 0.25 | 0.25 | 92 | 1002.2 |
| 20260507095232 | 66 | 180 | 12.0 | 30.0 | 0.00 | 0.25 | 0.25 | 91 | 1002.3 |
| 20260507094719 | 66 | 180 | 19.0 | 33.0 | 0.00 | 0.25 | 0.25 | 91 | 1002.3 |
| 20260507094208 | 66 | 180 | 23.0 | 33.0 | 0.00 | 0.25 | 0.25 | 91 | 1002.0 |
| 20260507093658 | 66 | 180 | 16.0 | 23.0 | 0.00 | 0.25 | 0.25 | 91 | 1002.4 |
| 20260507093649 | 66 | 225 | 14.0 | 26.0 | 0.00 | 0.25 | 0.25 | 91 | 1002.5 |
| 20260507092642 | 66 | 180 | 12.0 | 26.0 | 0.01 | 0.25 | 0.25 | 92 | 1002.7 |
| 20260507092128 | 66 | 135 | 11.0 | 19.0 | 0.01 | 0.25 | 0.25 | 93 | 1002.6 |
| 20260507092120 | 66 | 180 | 13.0 | 18.0 | 0.01 | 0.25 | 0.25 | 93 | 1002.6 |
| 20260507091107 | 66 | 180 | 11.0 | 18.0 | 0.01 | 0.25 | 0.25 | 94 | 1002.5 |
| 20260507091058 | 66 | 225 | 9.0 | 17.0 | 0.02 | 0.25 | 0.25 | 94 | 1002.3 |
| 20260507090103 | 66 | 180 | 10.0 | 17.0 | 0.06 | 0.25 | 0.25 | 94 | 1002.1 |
| 20260507085537 | 66 | 180 | 8.0 | 15.0 | 0.11 | 0.25 | 0.25 | 95 | 1002.0 |
| 20260507085027 | 66 | 180 | 8.0 | 17.0 | 0.14 | 0.25 | 0.25 | 95 | 1002.1 |
| 20260507084516 | 66 | 180 | 8.0 | 17.0 | 0.18 | 0.25 | 0.25 | 95 | 1001.8 |
| 20260507084008 | 66 | 203 | 11.0 | 16.0 | 0.18 | 0.25 | 0.25 | 96 | 1001.8 |
| 20260507083545 | 66 | 203 | 7.0 | 15.0 | 0.21 | 0.25 | 0.25 | 96 | 1001.6 |
| 20260507083500 | 66 | 135 | 8.0 | 15.0 | 0.20 | 0.25 | 0.25 | 96 | 1002.0 |
| 20260507083439 | 66 | 180 | 9.0 | 14.0 | 0.20 | 0.24 | 0.24 | 96 | 1002.0 |
| 20260507081926 | 66 | 180 | 8.0 | 11.0 | 0.20 | 0.24 | 0.24 | 95 | 1002.0 |
| 20260507081417 | 65 | 180 | 8.0 | 14.0 | 0.20 | 0.24 | 0.24 | 95 | 1002.3 |
| 20260507081411 | 65 | 180 | 7.0 | 17.0 | 0.20 | 0.24 | 0.24 | 95 | 1002.1 |
| 20260507080408 | 65 | 180 | 8.0 | 21.0 | 0.18 | 0.21 | 0.21 | 94 | 1002.1 |
| 20260507080347 | 66 | 225 | 14.0 | 21.0 | 0.15 | 0.19 | 0.19 | 94 | 1002.1 |
| 20260507075336 | 66 | 135 | 5.0 | 17.0 | 0.08 | 0.12 | 0.13 | 92 | 1001.5 |
| 20260507075327 | 67 | 203 | 8.0 | 11.0 | 0.08 | 0.09 | 0.09 | 91 | 1001.3 |
| 20260507074318 | 67 | 225 | 4.0 | 23.0 | 0.07 | 0.07 | 0.07 | 91 | 1001.6 |
| 20260507073805 | 67 | 225 | 8.0 | 23.0 | 0.05 | 0.05 | 0.05 | 89 | 1001.2 |
| 20260507073757 | 68 | 180 | 5.0 | 17.0 | 0.04 | 0.04 | 0.04 | 87 | 1001.2 |
| 20260507072744 | 68 | 203 | 10.0 | 17.0 | 0.04 | 0.04 | 0.04 | 87 | 1001.2 |
| 20260507072234 | 68 | 180 | 9.0 | 18.0 | 0.04 | 0.04 | 0.04 | 87 | 1001.1 |
| 20260507072228 | 68 | 180 | 12.0 | 18.0 | 0.04 | 0.04 | 0.04 | 88 | 1001.0 |
| 20260507071215 | 68 | 180 | 8.0 | 15.0 | 0.04 | 0.04 | 0.04 | 88 | 1000.8 |
| 20260507071205 | 69 | 180 | 9.0 | 13.0 | 0.04 | 0.04 | 0.04 | 89 | 1001.1 |
| 20260507070155 | 69 | 180 | 7.0 | 12.0 | 0.04 | 0.04 | 0.04 | 88 | 1001.0 |
| 20260507065652 | 69 | 180 | 6.0 | 15.0 | 0.04 | 0.04 | 0.04 | 85 | 1000.9 |
| 20260507065137 | 70 | 158 | 9.0 | 15.0 | 0.02 | 0.02 | 0.04 | 80 | 1001.2 |
| 20260507064624 | 72 | 315 | 8.0 | 14.0 | 0.00 | 0.00 | 0.00 | 79 | 1001.0 |
| 20260507064113 | 72 | 158 | 7.0 | 15.0 | 0.00 | 0.00 | 0.00 | 84 | 1000.8 |
| 20260507064056 | 72 | 180 | 7.0 | 15.0 | 0.00 | 0.00 | 0.00 | 91 | 1000.9 |
| 20260507063701 | 72 | 180 | 9.0 | 15.0 | 0.00 | 0.00 | 0.00 | 89 | 1000.9 |
| 20260507063047 | 71 | 180 | 8.0 | 11.0 | 0.00 | 0.00 | 0.00 | 93 | 1000.8 |
| 20260507062534 | 71 | 135 | 0.0 | 2.0 | 0.00 | 0.00 | 0.00 | 93 | 1000.4 |
| 20260507061522 | 71 | 180 | 2.0 | 2.0 | 0.00 | 0.00 | 0.00 | 93 | 1000.4 |
| 20260507061012 | 71 | 180 | 0.0 | 3.0 | 0.00 | 0.00 | 0.00 | 92 | 1000.3 |
| 20260507060503 | 71 | 315 | 0.0 | 3.0 | 0.00 | 0.00 | 0.00 | 92 | 1000.3 |
| 20260507055955 | 71 | 0 | 2.0 | 2.0 | 0.00 | 0.00 | 0.00 | 92 | 1000.3 |
| 20260507055442 | 71 | 0 | 0.0 | 2.0 | 0.00 | 0.00 | 0.00 | 92 | 1000.3 |
| 20260507054932 | 71 | 315 | 0.0 | 2.0 | 0.00 | 0.00 | 0.00 | 92 | 1000.4 |
| 20260507054422 | 71 | 0 | 1.0 | 2.0 | 0.00 | 0.00 | 0.00 | 92 | 1000.5 |
| 20260507053912 | 71 | 270 | 0.0 | 0.0 | 0.00 | 0.00 | 0.00 | 92 | 1000.6 |
| 20260507053405 | 72 | 338 | 0.0 | 0.0 | 0.00 | 0.00 | 0.00 | 91 | 1000.6 |
| 20260507052851 | 72 | 0 | 0.0 | 0.0 | 0.00 | 0.00 | 0.00 | 91 | 1000.7 |
| 20260507052341 | 72 | 315 | 0.0 | 0.0 | 0.00 | 0.00 | 0.00 | 90 | 1000.8 |
| 20260507051831 | 72 | 0 | 0.0 | 0.0 | 0.00 | 0.00 | 0.00 | 90 | 1000.8 |
| 20260507051321 | 72 | 315 | 0.0 | 0.0 | 0.00 | 0.00 | 0.00 | 90 | 1000.8 |
| 20260507051314 | 72 | 0 | 0.0 | 0.0 | 0.00 | 0.00 | 0.00 | 90 | 1000.9 |
| 20260507050300 | 72 | 225 | 0.0 | 0.0 | 0.00 | 0.00 | 0.00 | 90 | 1000.8 |
| 20260507045750 | 72 | 315 | 0.0 | 2.0 | 0.00 | 0.00 | 0.00 | 90 | 1000.8 |
| 20260507045240 | 72 | 0 | 0.0 | 2.0 | 0.00 | 0.00 | 0.00 | 90 | 1000.7 |
| 20260507044730 | 72 | 90 | 0.0 | 0.0 | 0.00 | 0.00 | 0.00 | 90 | 1000.7 |
| 20260507044223 | 72 | 315 | 0.0 | 2.0 | 0.00 | 0.00 | 0.00 | 90 | 1000.6 |
| 20260507043710 | 72 | 0 | 0.0 | 2.0 | 0.00 | 0.00 | 0.00 | 90 | 1000.7 |
| 20260507043651 | 72 | 0 | 0.0 | 0.0 | 0.00 | 0.00 | 0.00 | 90 | 1000.7 |
| 20260507043257 | 72 | 45 | 2.0 | 2.0 | 0.00 | 0.00 | 0.00 | 90 | 1000.8 |
| 20260507042139 | 73 | 0 | 0.0 | 0.0 | 0.00 | 0.00 | 0.00 | 90 | 1000.7 |
| 20260507041632 | 73 | 45 | 0.0 | 2.0 | 0.00 | 0.00 | 0.00 | 90 | 1000.7 |
| 20260507041119 | 73 | 0 | 0.0 | 2.0 | 0.00 | 0.00 | 0.00 | 90 | 1000.7 |
| 20260507041109 | 73 | 23 | 2.0 | 2.0 | 0.00 | 0.00 | 0.00 | 90 | 1000.7 |
| 20260507040108 | 73 | 45 | 0.0 | 0.0 | 0.00 | 0.00 | 0.00 | 90 | 1000.9 |
| 20260507035548 | 73 | 90 | 0.0 | 0.0 | 0.00 | 0.00 | 0.00 | 90 | 1001.0 |
| 20260507035054 | 73 | 90 | 0.0 | 0.0 | 0.00 | 0.00 | 0.00 | 90 | 1001.1 |
| 20260507035030 | 73 | 90 | 0.0 | 0.0 | 0.00 | 0.00 | 0.00 | 90 | 1001.2 |
| 20260507034018 | 73 | 135 | 0.0 | 0.0 | 0.00 | 0.00 | 0.00 | 90 | 1001.3 |
| 20260507033508 | 73 | 90 | 0.0 | 0.0 | 0.00 | 0.00 | 0.00 | 90 | 1001.3 |
| 20260507033459 | 73 | 180 | 0.0 | 0.0 | 0.00 | 0.00 | 0.00 | 89 | 1001.4 |
| 20260507032452 | 73 | 180 | 0.0 | 0.0 | 0.00 | 0.00 | 0.00 | 89 | 1001.4 |
| 20260507031938 | 73 | 225 | 0.0 | 0.0 | 0.00 | 0.00 | 0.00 | 89 | 1001.4 |
| 20260507031430 | 73 | 135 | 0.0 | 0.0 | 0.00 | 0.00 | 0.00 | 89 | 1001.3 |
| 20260507030917 | 73 | 158 | 0.0 | 0.0 | 0.00 | 0.00 | 0.00 | 89 | 1001.5 |
| 20260507030407 | 73 | 113 | 0.0 | 0.0 | 0.00 | 0.00 | 0.00 | 89 | 1001.4 |
| 20260507025900 | 73 | 225 | 0.0 | 0.0 | 0.00 | 0.00 | 0.00 | 89 | 1001.6 |
| 20260507025347 | 73 | 135 | 0.0 | 0.0 | 0.00 | 0.00 | 0.00 | 89 | 1001.6 |
| 20260507025338 | 73 | 180 | 0.0 | 2.0 | 0.00 | 0.00 | 0.00 | 92 | 1001.8 |
| 20260507024327 | 73 | 180 | 0.0 | 2.0 | 0.00 | 0.00 | 0.00 | 92 | 1001.8 |
| 20260507024316 | 73 | 180 | 0.0 | 2.0 | 0.00 | 0.00 | 0.00 | 91 | 1001.6 |
| 20260507023309 | 73 | 315 | 0.0 | 2.0 | 0.00 | 0.00 | 0.00 | 92 | 1001.5 |
| 20260507022757 | 73 | 270 | 0.0 | 3.0 | 0.00 | 0.00 | 0.00 | 91 | 1001.8 |
| 20260507022246 | 73 | 315 | 0.0 | 3.0 | 0.00 | 0.00 | 0.00 | 89 | 1001.5 |
| 20260507022236 | 73 | 0 | 2.0 | 4.0 | 0.00 | 0.00 | 0.00 | 91 | 1001.4 |
| 20260507021226 | 74 | 0 | 2.0 | 4.0 | 0.00 | 0.00 | 0.00 | 91 | 1001.4 |
| 20260507020719 | 74 | 315 | 2.0 | 4.0 | 0.00 | 0.00 | 0.00 | 90 | 1001.4 |
| 20260507020206 | 74 | 338 | 2.0 | 4.0 | 0.00 | 0.00 | 0.00 | 90 | 1001.4 |
| 20260507015656 | 74 | 0 | 2.0 | 4.0 | 0.00 | 0.00 | 0.00 | 90 | 1001.3 |
| 20260507015145 | 74 | 315 | 0.0 | 5.0 | 0.00 | 0.00 | 0.00 | 90 | 1001.2 |
| 20260507014635 | 74 | 45 | 2.0 | 8.0 | 0.00 | 0.00 | 0.00 | 90 | 1001.2 |
| 20260507014128 | 74 | 0 | 3.0 | 8.0 | 0.00 | 0.00 | 0.00 | 90 | 1001.0 |
| 20260507013615 | 74 | 315 | 2.0 | 5.0 | 0.00 | 0.00 | 0.00 | 89 | 1001.0 |
| 20260507013606 | 74 | 0 | 2.0 | 7.0 | 0.00 | 0.00 | 0.00 | 89 | 1001.0 |
| 20260507012554 | 74 | 270 | 3.0 | 7.0 | 0.00 | 0.00 | 0.00 | 88 | 1001.1 |
| 20260507012044 | 74 | 0 | 3.0 | 4.0 | 0.00 | 0.00 | 0.00 | 88 | 1001.2 |
| 20260507011537 | 74 | 0 | 2.0 | 4.0 | 0.00 | 0.00 | 0.00 | 87 | 1001.1 |
| 20260507011024 | 74 | 45 | 2.0 | 4.0 | 0.00 | 0.00 | 0.00 | 87 | 1001.2 |
| 20260507010514 | 75 | 0 | 2.0 | 5.0 | 0.00 | 0.00 | 0.00 | 87 | 1001.3 |
| 20260507010004 | 75 | 0 | 2.0 | 6.0 | 0.00 | 0.00 | 0.00 | 86 | 1001.2 |
| 20260507005453 | 75 | 45 | 2.0 | 6.0 | 0.00 | 0.00 | 0.00 | 85 | 1001.2 |
| 20260507004951 | 75 | 0 | 3.0 | 6.0 | 0.00 | 0.00 | 0.00 | 85 | 1001.0 |
| 20260507004433 | 76 | 45 | 3.0 | 8.0 | 0.00 | 0.00 | 0.00 | 84 | 1001.1 |
| 20260507003923 | 76 | 0 | 2.0 | 8.0 | 0.00 | 0.00 | 0.00 | 84 | 1001.0 |
| 20260507003914 | 76 | 0 | 3.0 | 7.0 | 0.00 | 0.00 | 0.00 | 84 | 1000.9 |
| 20260507003406 | 76 | 0 | 4.0 | 8.0 | 0.00 | 0.00 | 0.00 | 84 | 1001.0 |
| 20260507002858 | 76 | 45 | 2.0 | 8.0 | 0.00 | 0.00 | 0.00 | 83 | 1000.8 |
| 20260507001842 | 76 | 0 | 3.0 | 8.0 | 0.00 | 0.00 | 0.00 | 83 | 1000.7 |
| 20260507001834 | 77 | 45 | 4.0 | 8.0 | 0.00 | 0.00 | 0.00 | 82 | 1000.7 |
| 20260507000822 | 77 | 45 | 4.0 | 10.0 | 0.00 | 0.00 | 0.00 | 82 | 1000.5 |
| 20260507000314 | 77 | 45 | 4.0 | 10.0 | 0.00 | 0.00 | 0.00 | 80 | 1000.3 |
| 20260506235806 | 77 | 45 | 4.0 | 11.0 | 0.00 | 0.00 | 0.00 | 80 | 1000.2 |
| 20260506235252 | 77 | 45 | 4.0 | 11.0 | 0.00 | 0.00 | 0.00 | 79 | 1000.2 |
| 20260506234741 | 77 | 0 | 7.0 | 11.0 | 0.00 | 0.00 | 0.00 | 79 | 1000.3 |
| 20260506234232 | 77 | 45 | 5.0 | 11.0 | 0.00 | 0.00 | 0.00 | 79 | 1000.1 |
| 20260506233728 | 78 | 45 | 6.0 | 10.0 | 0.00 | 0.00 | 0.00 | 77 | 1000.2 |
| 20260506233722 | 77 | 45 | 4.0 | 10.0 | 0.00 | 0.00 | 0.00 | 78 | 1000.2 |
| 20260506232701 | 78 | 45 | 7.0 | 9.0 | 0.00 | 0.00 | 0.00 | 77 | 1000.3 |
| 20260506232651 | 78 | 0 | 4.0 | 8.0 | 0.00 | 0.00 | 0.00 | 76 | 1000.2 |
| 20260506231641 | 79 | 0 | 3.0 | 8.0 | 0.00 | 0.00 | 0.00 | 75 | 1000.3 |
| 20260506231159 | 79 | 0 | 4.0 | 10.0 | 0.00 | 0.00 | 0.00 | 73 | 1000.4 |
| 20260506230623 | 79 | 68 | 8.0 | 11.0 | 0.00 | 0.00 | 0.00 | 73 | 1000.4 |
| 20260506230111 | 79 | 45 | 4.0 | 12.0 | 0.00 | 0.00 | 0.00 | 73 | 1000.3 |
| 20260506225601 | 79 | 45 | 6.0 | 12.0 | 0.00 | 0.00 | 0.00 | 73 | 1000.3 |
| 20260506225049 | 79 | 0 | 5.0 | 11.0 | 0.00 | 0.00 | 0.00 | 74 | 1000.4 |
| 20260506224540 | 79 | 315 | 5.0 | 11.0 | 0.00 | 0.00 | 0.00 | 74 | 1000.4 |
| 20260506224033 | 79 | 45 | 4.0 | 11.0 | 0.00 | 0.00 | 0.00 | 75 | 1000.5 |
| 20260506224021 | 79 | 0 | 4.0 | 10.0 | 0.00 | 0.00 | 0.00 | 75 | 1000.5 |
| 20260506223009 | 79 | 45 | 4.0 | 11.0 | 0.00 | 0.00 | 0.00 | 75 | 1000.4 |
| 20260506222500 | 79 | 45 | 5.0 | 11.0 | 0.00 | 0.00 | 0.00 | 75 | 1000.4 |
| 20260506221949 | 79 | 0 | 6.0 | 12.0 | 0.00 | 0.00 | 0.00 | 75 | 1000.2 |
| 20260506221943 | 79 | 45 | 8.0 | 12.0 | 0.00 | 0.00 | 0.00 | 75 | 1000.2 |
| 20260506220929 | 79 | 45 | 6.0 | 11.0 | 0.00 | 0.00 | 0.00 | 76 | 1000.3 |
| 20260506220418 | 79 | 0 | 7.0 | 11.0 | 0.00 | 0.00 | 0.00 | 76 | 1000.4 |
| 20260506215909 | 79 | 45 | 5.0 | 8.0 | 0.00 | 0.00 | 0.00 | 75 | 1000.6 |
| 20260506215900 | 79 | 0 | 3.0 | 4.0 | 0.00 | 0.00 | 0.00 | 74 | 1000.9 |
| 20260506214852 | 80 | 23 | 2.0 | 5.0 | 0.00 | 0.00 | 0.00 | 72 | 1001.0 |
| 20260506214338 | 80 | 0 | 1.0 | 5.0 | 0.00 | 0.00 | 0.00 | 72 | 1001.1 |
| 20260506213828 | 81 | 0 | 2.0 | 5.0 | 0.00 | 0.00 | 0.00 | 71 | 1001.0 |
| 20260506213318 | 81 | 45 | 4.0 | 6.0 | 0.00 | 0.00 | 0.00 | 70 | 1000.8 |
| 20260506212807 | 81 | 0 | 3.0 | 6.0 | 0.00 | 0.00 | 0.00 | 70 | 1000.9 |
| 20260506212301 | 81 | 0 | 2.0 | 5.0 | 0.00 | 0.00 | 0.00 | 69 | 1001.0 |
| 20260506211747 | 81 | 0 | 2.0 | 5.0 | 0.00 | 0.00 | 0.00 | 68 | 1001.0 |
| 20260506211237 | 83 | 0 | 4.0 | 7.0 | 0.00 | 0.00 | 0.00 | 66 | 1001.1 |
| 20260506210728 | 83 | 0 | 3.0 | 8.0 | 0.00 | 0.00 | 0.00 | 64 | 1001.2 |
| 20260506210218 | 84 | 338 | 4.0 | 9.0 | 0.00 | 0.00 | 0.00 | 63 | 1001.4 |
| 20260506210212 | 86 | 0 | 5.0 | 10.0 | 0.00 | 0.00 | 0.00 | 61 | 1001.3 |
| 20260506205157 | 87 | 0 | 6.0 | 11.0 | 0.00 | 0.00 | 0.00 | 59 | 1001.2 |
| 20260506204647 | 87 | 315 | 6.0 | 11.0 | 0.00 | 0.00 | 0.00 | 58 | 1001.4 |
| 20260506204136 | 87 | 315 | 5.0 | 11.0 | 0.00 | 0.00 | 0.00 | 58 | 1001.4 |
| 20260506203626 | 87 | 338 | 6.0 | 12.0 | 0.00 | 0.00 | 0.00 | 58 | 1001.3 |
| 20260506203119 | 87 | 0 | 8.0 | 12.0 | 0.00 | 0.00 | 0.00 | 59 | 1001.3 |
| 20260506202606 | 87 | 338 | 5.0 | 12.0 | 0.00 | 0.00 | 0.00 | 59 | 1001.3 |
| 20260506202558 | 87 | 0 | 7.0 | 17.0 | 0.00 | 0.00 | 0.00 | 57 | 1001.3 |
| 20260506202046 | 88 | 315 | 8.0 | 17.0 | 0.00 | 0.00 | 0.00 | 55 | 1001.3 |
| 20260506201036 | 88 | 315 | 5.0 | 16.0 | 0.00 | 0.00 | 0.00 | 55 | 1001.3 |
| 20260506200528 | 89 | 315 | 8.0 | 15.0 | 0.00 | 0.00 | 0.00 | 54 | 1001.5 |
| 20260506200015 | 90 | 0 | 6.0 | 15.0 | 0.00 | 0.00 | 0.00 | 52 | 1001.4 |
| 20260506195505 | 90 | 315 | 4.0 | 13.0 | 0.00 | 0.00 | 0.00 | 53 | 1001.4 |
| 20260506194958 | 91 | 23 | 5.0 | 12.0 | 0.00 | 0.00 | 0.00 | 52 | 1001.4 |
| 20260506194445 | 90 | 0 | 3.0 | 12.0 | 0.00 | 0.00 | 0.00 | 54 | 1001.4 |
| 20260506193938 | 90 | 248 | 5.0 | 12.0 | 0.00 | 0.00 | 0.00 | 53 | 1001.5 |
| 20260506193425 | 90 | 0 | 7.0 | 11.0 | 0.00 | 0.00 | 0.00 | 52 | 1001.6 |
| 20260506193415 | 91 | 0 | 6.0 | 11.0 | 0.00 | 0.00 | 0.00 | 52 | 1001.6 |
| 20260506193032 | 91 | 315 | 7.0 | 11.0 | 0.00 | 0.00 | 0.00 | 53 | 1001.8 |
| 20260506191855 | 91 | 315 | 8.0 | 14.0 | 0.00 | 0.00 | 0.00 | 53 | 1001.6 |
| 20260506191347 | 90 | 293 | 6.0 | 14.0 | 0.00 | 0.00 | 0.00 | 53 | 1001.5 |
| 20260506190833 | 90 | 45 | 6.0 | 17.0 | 0.00 | 0.00 | 0.00 | 53 | 1001.8 |
| 20260506190824 | 91 | 90 | 8.0 | 17.0 | 0.00 | 0.00 | 0.00 | 52 | 1001.6 |
| 20260506185814 | 90 | 0 | 7.0 | 17.0 | 0.00 | 0.00 | 0.00 | 53 | 1001.6 |
| 20260506185306 | 89 | 0 | 4.0 | 18.0 | 0.00 | 0.00 | 0.00 | 55 | 1001.8 |
| 20260506184757 | 89 | 0 | 8.0 | 18.0 | 0.00 | 0.00 | 0.00 | 55 | 1001.8 |
| 20260506184243 | 90 | 0 | 7.0 | 15.0 | 0.00 | 0.00 | 0.00 | 54 | 1001.6 |
| 20260506183733 | 89 | 315 | 6.0 | 15.0 | 0.00 | 0.00 | 0.00 | 55 | 1001.9 |
| 20260506183724 | 90 | 225 | 8.0 | 15.0 | 0.00 | 0.00 | 0.00 | 53 | 1001.9 |
| 20260506183214 | 90 | 315 | 4.0 | 15.0 | 0.00 | 0.00 | 0.00 | 53 | 1001.9 |
| 20260506182206 | 90 | 0 | 7.0 | 18.0 | 0.00 | 0.00 | 0.00 | 53 | 1002.0 |
| 20260506181652 | 90 | 0 | 11.0 | 18.0 | 0.00 | 0.00 | 0.00 | 53 | 1002.2 |
| 20260506181142 | 90 | 45 | 8.0 | 14.0 | 0.00 | 0.00 | 0.00 | 54 | 1002.2 |
| 20260506181134 | 90 | 0 | 8.0 | 17.0 | 0.00 | 0.00 | 0.00 | 54 | 1002.3 |
| 20260506180122 | 90 | 0 | 8.0 | 17.0 | 0.00 | 0.00 | 0.00 | 54 | 1002.5 |
| 20260506175615 | 89 | 225 | 6.0 | 17.0 | 0.00 | 0.00 | 0.00 | 56 | 1002.5 |
| 20260506175102 | 89 | 23 | 6.0 | 15.0 | 0.00 | 0.00 | 0.00 | 55 | 1002.7 |
| 20260506174551 | 90 | 315 | 5.0 | 15.0 | 0.00 | 0.00 | 0.00 | 53 | 1002.6 |
| 20260506174042 | 90 | 270 | 8.0 | 18.0 | 0.00 | 0.00 | 0.00 | 53 | 1002.7 |
| 20260506173532 | 90 | 315 | 8.0 | 18.0 | 0.00 | 0.00 | 0.00 | 53 | 1002.8 |
| 20260506173024 | 90 | 0 | 9.0 | 17.0 | 0.00 | 0.00 | 0.00 | 52 | 1003.1 |
| 20260506172517 | 90 | 315 | 6.0 | 16.0 | 0.00 | 0.00 | 0.00 | 53 | 1003.2 |
| 20260506172001 | 90 | 315 | 5.0 | 21.0 | 0.00 | 0.00 | 0.00 | 53 | 1003.2 |
| 20260506171451 | 90 | 315 | 11.0 | 21.0 | 0.00 | 0.00 | 0.00 | 52 | 1003.2 |
| 20260506170941 | 90 | 293 | 6.0 | 15.0 | 0.00 | 0.00 | 0.00 | 53 | 1003.4 |
| 20260506170935 | 91 | 0 | 10.0 | 15.0 | 0.00 | 0.00 | 0.00 | 54 | 1003.5 |
| 20260506165920 | 90 | 0 | 4.0 | 17.0 | 0.00 | 0.00 | 0.00 | 55 | 1003.5 |
| 20260506165410 | 90 | 0 | 8.0 | 17.0 | 0.00 | 0.00 | 0.00 | 53 | 1003.6 |
| 20260506164900 | 89 | 0 | 8.0 | 17.0 | 0.00 | 0.00 | 0.00 | 55 | 1003.5 |
| 20260506164852 | 89 | 0 | 6.0 | 16.0 | 0.00 | 0.00 | 0.00 | 57 | 1003.7 |
| 20260506163843 | 89 | 0 | 11.0 | 16.0 | 0.00 | 0.00 | 0.00 | 56 | 1003.8 |
| 20260506163330 | 90 | 315 | 6.0 | 14.0 | 0.00 | 0.00 | 0.00 | 56 | 1003.8 |
| 20260506163321 | 88 | 0 | 8.0 | 17.0 | 0.00 | 0.00 | 0.00 | 59 | 1003.8 |
| 20260506162309 | 88 | 315 | 8.0 | 17.0 | 0.00 | 0.00 | 0.00 | 59 | 1004.1 |
| 20260506162300 | 88 | 315 | 10.0 | 17.0 | 0.00 | 0.00 | 0.00 | 59 | 1004.2 |
| 20260506161252 | 88 | 0 | 5.0 | 15.0 | 0.00 | 0.00 | 0.00 | 59 | 1004.2 |
| 20260506160744 | 88 | 0 | 9.0 | 17.0 | 0.00 | 0.00 | 0.00 | 59 | 1004.3 |
| 20260506160241 | 88 | 90 | 5.0 | 17.0 | 0.00 | 0.00 | 0.00 | 59 | 1004.3 |
| 20260506155719 | 88 | 0 | 6.0 | 12.0 | 0.00 | 0.00 | 0.00 | 59 | 1004.5 |
| 20260506155710 | 88 | 0 | 5.0 | 17.0 | 0.00 | 0.00 | 0.00 | 59 | 1004.6 |
| 20260506154702 | 88 | 315 | 5.0 | 17.0 | 0.00 | 0.00 | 0.00 | 59 | 1004.7 |
| 20260506154148 | 87 | 45 | 11.0 | 15.0 | 0.00 | 0.00 | 0.00 | 60 | 1005.1 |
| 20260506154130 | 87 | 0 | 8.0 | 17.0 | 0.00 | 0.00 | 0.00 | 61 | 1005.2 |